Colby, KS

11:03 AM CST on February 27, 2017 (GMT -0600)
Shaltz

Weather History for KCBK - January, 2013

Change the Weather History Date:

Saturday, January 26, 2013

  Actual Average (KGLD) Record (KGLD)
Temperature  
Mean Temperature 44 °F -  
Max Temperature 57 °F 41 °F 79 °F (1951)
Min Temperature 30 °F 18 °F -14 °F (1963)
Degree Days  
Heating Degree Days 22    
Moisture  
Dew Point 31 °F    
Average Humidity 69    
Maximum Humidity 100    
Minimum Humidity 38    
Precipitation  
Precipitation 0.00 in - - ()
Sea Level Pressure  
Sea Level Pressure 29.98 in    
Wind  
Wind Speed 10 mph (South)    
Max Wind Speed 20 mph    
Max Gust Speed 24 mph    
Visibility 10 miles    
Events Rain    
Averages and records for this station are not official NWS values.
T = Trace of Precipitation, MM = Missing Value Source: NWS Daily Summary

Daily Weather History Graph

Daily Weather History Graph

Search for Another Location

Airport or City:

Trip Planner

Search our weather history database for the weather conditions in past years. The results will help you decide how hot, cold, wet, or windy it might be!

Date:

Astronomy

Jan. 26, 2013 Rise Set
Actual Time 7:56 AM CST 5:57 PM CST
Civil Twilight 7:27 AM CST 6:26 PM CST
Nautical Twilight 6:55 AM CST 6:59 PM CST
Astronomical Twilight 6:23 AM CST 7:30 PM CST
Moon 5:54 PM CST (1/26) 7:15 AM CST (1/26)
Length of Visible Light 10h 59m
Length of Day
10h 01m
Full, 100% of the Moon is Illuminated
Jan 26
Full
Jan 26
Full
Feb 3
Last Quarter
Feb 10
New
Feb 17
First Quarter

Hourly Weather History & Observations

Time (CST) Temp. Windchill Dew Point Humidity Pressure Visibility Wind Dir Wind Speed Gust Speed Precip Events Conditions
12:15 AM 33.8 °F 30.8 °F 28.4 °F 81% 30.13 in 10.0 mi SSW 3.5 mph - N/A   Clear
12:35 AM 32.0 °F - 28.4 °F 87% 30.13 in 10.0 mi Calm Calm - N/A   Clear
12:55 AM 32.0 °F 28.7 °F 28.4 °F 87% 30.12 in 10.0 mi South 3.5 mph - N/A   Clear
1:15 AM 32.0 °F 27.5 °F 28.4 °F 87% 30.11 in 10.0 mi South 4.6 mph - N/A   Clear
1:35 AM 32.0 °F 27.5 °F 28.4 °F 87% 30.10 in 10.0 mi SSW 4.6 mph - N/A   Clear
1:55 AM 32.0 °F 27.5 °F 28.4 °F 87% 30.10 in 10.0 mi South 4.6 mph - N/A   Clear
2:15 AM 30.2 °F 24.3 °F 28.4 °F 93% 30.10 in 10.0 mi SSW 5.8 mph - N/A   Clear
2:35 AM 30.2 °F 24.3 °F 28.4 °F 93% 30.09 in 10.0 mi SSW 5.8 mph - N/A   Clear
2:55 AM 30.2 °F 24.3 °F 26.6 °F 86% 30.09 in 10.0 mi South 5.8 mph - N/A   Clear
3:15 AM 30.2 °F 24.3 °F 28.4 °F 93% 30.09 in 10.0 mi South 5.8 mph - N/A   Clear
3:35 AM 32.0 °F 24.2 °F 28.4 °F 87% 30.08 in 10.0 mi South 9.2 mph - N/A   Clear
3:55 AM 32.0 °F 24.8 °F 30.2 °F 93% 30.07 in 10.0 mi SSW 8.1 mph - N/A   Clear
4:15 AM 32.0 °F 25.6 °F 30.2 °F 93% 30.06 in 10.0 mi SSW 6.9 mph - N/A   Clear
4:35 AM 33.8 °F 25.3 °F 30.2 °F 87% 30.05 in 10.0 mi South 11.5 mph - N/A   Clear
4:55 AM 35.6 °F 27.1 °F 30.2 °F 81% 30.05 in 10.0 mi South 12.7 mph - N/A   Clear
5:15 AM 35.6 °F 26.6 °F 30.2 °F 81% 30.04 in 10.0 mi South 13.8 mph - N/A   Clear
5:35 AM 35.6 °F 27.1 °F 30.2 °F 81% 30.03 in 10.0 mi South 12.7 mph - N/A   Clear
6:15 AM 35.6 °F 26.2 °F 30.2 °F 81% 30.03 in 10.0 mi South 15.0 mph 20.7 mph N/A   Clear
6:35 AM 35.6 °F 25.9 °F 30.2 °F 81% 30.04 in 10.0 mi South 16.1 mph 20.7 mph N/A   Clear
6:55 AM 35.6 °F 27.1 °F 30.2 °F 81% 30.04 in 10.0 mi South 12.7 mph 18.4 mph N/A   Clear
7:15 AM 33.8 °F 24.3 °F 30.2 °F 87% 30.04 in 10.0 mi South 13.8 mph 18.4 mph N/A   Clear
7:35 AM 32.0 °F 23.0 °F 28.4 °F 87% 30.04 in 10.0 mi South 11.5 mph - N/A   Clear
7:55 AM 33.8 °F 24.3 °F 28.4 °F 81% 30.03 in 10.0 mi South 13.8 mph - N/A   Clear
8:15 AM 33.8 °F 24.3 °F 28.4 °F 81% 30.04 in 10.0 mi South 13.8 mph - N/A   Clear
8:35 AM 33.8 °F 23.9 °F 30.2 °F 87% 30.03 in 10.0 mi South 15.0 mph 20.7 mph N/A   Clear
8:55 AM 35.6 °F 25.5 °F 30.2 °F 81% 30.03 in 10.0 mi South 17.3 mph 24.2 mph N/A   Clear
9:15 AM 35.6 °F 27.1 °F 30.2 °F 81% 30.03 in 10.0 mi SSW 12.7 mph - N/A   Clear
9:35 AM 37.4 °F 29.3 °F 32.0 °F 81% 30.02 in 10.0 mi South 12.7 mph - N/A   Clear
9:55 AM 39.2 °F 30.8 °F 32.0 °F 75% 30.02 in 10.0 mi SSW 15.0 mph 18.4 mph N/A   Clear
10:15 AM 41.0 °F 33.5 °F 32.0 °F 70% 30.03 in 10.0 mi South 13.8 mph 20.7 mph N/A   Clear
10:35 AM 42.8 °F 34.8 °F 32.0 °F 66% 30.03 in 10.0 mi SSW 17.3 mph 21.9 mph N/A   Clear
10:55 AM 44.6 °F 37.8 °F 32.0 °F 61% 30.03 in 10.0 mi SSW 15.0 mph 20.7 mph N/A   Clear
11:15 AM 46.4 °F 39.8 °F 32.0 °F 57% 30.02 in 10.0 mi South 16.1 mph 20.7 mph N/A   Clear
11:35 AM 46.4 °F 39.8 °F 32.0 °F 57% 30.02 in 10.0 mi SSW 16.1 mph 20.7 mph N/A   Clear
11:55 AM 50.0 °F - 32.0 °F 50% 30.01 in 10.0 mi South 15.0 mph - N/A   Clear
12:15 PM 51.8 °F - 32.0 °F 47% 30.00 in 10.0 mi South 16.1 mph - N/A   Clear
12:35 PM 53.6 °F - 32.0 °F 44% 29.99 in 10.0 mi South 19.6 mph - N/A   Clear
12:55 PM 53.6 °F - 32.0 °F 44% 29.98 in 10.0 mi South 18.4 mph 21.9 mph N/A   Clear
1:15 PM 55.4 °F - 32.0 °F 41% 29.97 in 10.0 mi South 17.3 mph 21.9 mph N/A   Clear
1:35 PM 57.2 °F - 32.0 °F 38% 29.96 in 10.0 mi South 13.8 mph 21.9 mph N/A   Clear
1:55 PM 57.2 °F - 32.0 °F 38% 29.95 in 10.0 mi South 15.0 mph 23.0 mph N/A   Clear
2:15 PM 55.4 °F - 32.0 °F 41% 29.93 in 10.0 mi South 13.8 mph - N/A   Clear
2:35 PM 53.6 °F - 32.0 °F 44% 29.93 in 10.0 mi South 10.4 mph - N/A   Clear
2:55 PM 55.4 °F - 32.0 °F 41% 29.92 in 10.0 mi SSE 10.4 mph - N/A   Clear
3:15 PM 55.4 °F - 32.0 °F 41% 29.92 in 10.0 mi SSE 12.7 mph - N/A   Clear
3:35 PM 55.4 °F - 32.0 °F 41% 29.91 in 10.0 mi SSE 16.1 mph 20.7 mph N/A   Clear
3:55 PM 57.2 °F - 32.0 °F 38% 29.91 in 10.0 mi SSE 13.8 mph - N/A   Clear
4:15 PM 55.4 °F - 32.0 °F 41% 29.91 in 10.0 mi SSE 13.8 mph - N/A   Clear
4:35 PM 53.6 °F - 32.0 °F 44% 29.90 in 10.0 mi SSE 13.8 mph - N/A   Clear
4:55 PM 53.6 °F - 32.0 °F 44% 29.90 in 10.0 mi SSE 16.1 mph 21.9 mph N/A   Clear
5:15 PM 51.8 °F - 32.0 °F 47% 29.90 in 10.0 mi SSE 15.0 mph - N/A   Clear
5:35 PM 50.0 °F - 32.0 °F 50% 29.90 in 10.0 mi SSE 11.5 mph - N/A   Scattered Clouds
5:55 PM 50.0 °F - 32.0 °F 50% 29.90 in 10.0 mi SE 9.2 mph - N/A   Scattered Clouds
6:15 PM 48.2 °F - 32.0 °F 54% 29.90 in 10.0 mi SE 9.2 mph - N/A   Mostly Cloudy
6:35 PM 48.2 °F - 32.0 °F 54% 29.90 in 10.0 mi SSE 10.4 mph - N/A   Overcast
6:55 PM 46.4 °F 41.5 °F 32.0 °F 57% 29.89 in 10.0 mi SE 10.4 mph - N/A   Overcast
7:15 PM 46.4 °F 41.1 °F 32.0 °F 57% 29.88 in 10.0 mi SE 11.5 mph - N/A   Overcast
7:35 PM 44.6 °F 38.4 °F 32.0 °F 61% 29.88 in 10.0 mi SSE 12.7 mph - N/A   Overcast
7:55 PM 44.6 °F 39.2 °F 32.0 °F 61% 29.88 in 10.0 mi SE 10.4 mph - N/A   Light Drizzle
8:15 PM 44.6 °F 38.4 °F 32.0 °F 61% 29.87 in 10.0 mi SSE 12.7 mph - N/A   Overcast
8:55 PM 44.6 °F 38.8 °F 32.0 °F 61% 29.86 in 10.0 mi SSE 11.5 mph - N/A   Overcast
9:15 PM 42.8 °F 36.6 °F 32.0 °F 66% 29.85 in 10.0 mi SSE 11.5 mph - N/A   Overcast
9:35 PM 42.8 °F 37.0 °F 33.8 °F 70% 29.84 in 10.0 mi SSE 10.4 mph - N/A Rain Light Rain
9:55 PM 42.8 °F 36.2 °F 33.8 °F 70% 29.84 in 10.0 mi SSE 12.7 mph - N/A   Overcast
10:15 PM 41.0 °F 33.5 °F 35.6 °F 81% 29.84 in 10.0 mi SE 13.8 mph - N/A   Overcast
10:35 PM 41.0 °F 33.9 °F 35.6 °F 81% 29.84 in 7.0 mi SE 12.7 mph - N/A   Light Drizzle
10:55 PM 39.2 °F 32.5 °F 37.4 °F 93% 29.83 in 7.0 mi SE 10.4 mph - N/A Rain Light Rain
11:15 PM 39.2 °F 32.5 °F 37.4 °F 93% 29.84 in 3.0 mi SE 10.4 mph - N/A Rain Rain
11:35 PM 37.4 °F 30.3 °F 37.4 °F 100% 29.82 in 4.0 mi SE 10.4 mph - N/A Rain Light Rain
11:55 PM 37.4 °F 30.8 °F 37.4 °F 100% 29.81 in 4.0 mi ESE 9.2 mph - N/A   Overcast